Regional Weather Roundup
Issued by NWS

Home | Current Version | Previous Version | Text Only | Print | Product List | Glossary On
Versions: 1 2 3 4 5 6 7 8 9 10 11 12 13 14 15 16 17 18 19 20 21 22 23 24 25 26 27 28 29 30 31 32 33 34 35 36 37 38 39 40 41 42 43 44 45 46 47 48 49 50
216
ASUS42 KTBW 010316
RWRFL
FLORIDA REGIONAL WEATHER ROUNDUP
NATIONAL WEATHER SERVICE TAMPA BAY RUSKIN FL
1100 PM EDT SAT APR 30 2016

NOTE: "FAIR" INDICATES FEW OR NO CLOUDS BELOW 12,000 FEET WITH NO
SIGNIFICANT WEATHER AND/OR OBSTRUCTIONS TO VISIBILITY.

FLZ001>010-012>015-112-114-115-010400-
PANHANDLE FLORIDA

CITY           SKY/WX    TMP DP  RH WIND       PRES   REMARKS
PENSACOLA      MOCLDY    76  72  87 SE7       29.98R
MILTON NAS     LGT RAIN  73  71  93 SE7       29.98
CRESTVIEW      CLOUDY    73  69  87 S3        30.00R
DUKE FIELD     FAIR      74  71  90 S6        29.98R
VALPARAISO     CLOUDY    76  73  89 SE7       29.98R
MARY ESTHER    CLOUDY    75  73  92 SE8       29.97R
PANAMA CITY    FAIR      76  73  91 SE6       29.99R
TYNDALL AFB    MOCLDY    74  72  94 SE6       29.99R
APALACHICOLA   PTCLDY    75  74  96 S5        29.99R

STATION/POSITION SKY/WX   TEMP    WIND        PRES    WAVE   SWELL
                          AIR SEA DIR/SP/G            HT/PER HT/PER
                          (F)     (DEG/KT/KT) (MB)    (FT/S) (FT/S)
30.1N   87.6W              75 74   80/  4/  6 1014.3R   5/ 6   5/ 6
29.2N   88.2W              75 74  120/  4/  6 1014.0R
28.8N   86.0W              79 78  160/ 12/ 16 1015.4R   4/ 7   3/ 7
PANAMA CITY BEAC           76 78  130/ 12/ 13 1015.0R
TOWER C                    74     200/  3/  4 1016.4R
28.5N   84.5W              75 75  150/  4/  4 1014.8R   4/ 7   3/ 7

$$
FLZ011-016>038-118-127-128-134-139-239-010400-
NORTH FLORIDA

CITY           SKY/WX    TMP DP  RH WIND       PRES   REMARKS
MARIANNA       CLOUDY    76  67  73 S5        29.99R
TALLAHASSEE    PTCLDY    74  69  85 CALM      30.00R
PERRY          CLOUDY    74  71  90 NE3       30.01S
LIVE OAK       CLOUDY    75  73  94 CALM      30.04R
CROSS CITY       N/A     73  68  84 CALM      30.01R
LAKE CITY      CLOUDY    72  72 100 SE3       30.02R
GAINESVILLE    CLOUDY    77  66  68 SE7       30.01R
WILLISTON      FAIR      77  72  83 CALM      30.01F
PALATKA        FAIR      73  73 100 SE7       30.03R
MAYPORT NAS    PTCLDY    72  71  97 SE8       30.03R
JACKSONVILLE   PTCLDY    74  70  87 SE9       30.02R
JAX NAS        MOCLDY    78  69  73 SE12      30.03R
JAX CECIL      PTCLDY    75  68  78 SE3       30.02R
FERNANDINA BEA FAIR      77  72  83 SE7       30.02S
ST AUGUSTINE   PTCLDY    75  70  84 S10       30.04R
PALM COAST     FAIR      72  71  96 SE3       30.04R FOG

STATION/POSITION SKY/WX   TEMP    WIND        PRES    WAVE   SWELL
                          AIR SEA DIR/SP/G            HT/PER HT/PER
                          (F)     (DEG/KT/KT) (MB)    (FT/S) (FT/S)
SHELL POINT                78     190/  5/  6 1014.2
KEATON BEACH               74      70/  3/  5 1015.6R
CEDAR KEY                  77      10/  4/  6 1016.5R
FERNANDINA                 75 78  130/  5/  7 1016.4R
30.7N   81.3W                 74                N/A     2/11
MAYPORT                    75 76  140/  4/  8 1016.5R
ST AUGUSTINE               74 74  160/ 10/ 10 1017.7R

$$
FLZ040-043>046-052-053-057-058-063-144-010400-
INTERIOR CENTRAL FLORIDA

CITY           SKY/WX    TMP DP  RH WIND       PRES   REMARKS
OCALA          PTCLDY    79  64  61 E3        30.02R
THE VILLAGES     N/A     77  70  78 E7        29.93R
LEESBURG       PTCLDY    77  67  71 SE10      30.03R
SANFORD        CLEAR     72  68  87 SE7       30.03R
ORLANDO EXEC   PTCLDY    75  67  76 SE8       30.02R
ORLANDO INTL   MOCLDY    73  66  78 SE7       30.03R
WINTER HAVEN   CLOUDY    75  65  70 E7        30.03R
LAKELAND       CLOUDY    73  63  68 E7        30.02R
BARTOW         FAIR      72  63  73 CALM      30.03R
OKEECHOBEE     CLEAR     66  64  94 E3        30.02S

$$
FLZ041-047-054-059-064-141-147-010400-
EAST CENTRAL FLORIDA

CITY           SKY/WX    TMP DP  RH WIND       PRES   REMARKS
DAYTONA BEACH  CLEAR     74  70  87 CALM      30.03R
DELAND           N/A     72  68  88 CALM      30.05R
JFK SPACE CTR  PTCLDY    73  68  84 SE6       30.03R
CAPE CANAVERAL PTCLDY    74  69  83 SE5       30.03R
PATRICK AFB    CLOUDY    76  69  77 SE13      30.02R
MELBOURNE      CLEAR     77  67  71 E12       30.03R
VERO BEACH     PTCLDY    76  64  66 E6        30.02R
FT PIERCE      PTCLDY    73  64  73 E8        30.02R
STUART         CLOUDY    79  68  69 E12       30.02S

STATION/POSITION SKY/WX   TEMP    WIND        PRES    WAVE   SWELL
                          AIR SEA DIR/SP/G            HT/PER HT/PER
                          (F)     (DEG/KT/KT) (MB)    (FT/S) (FT/S)
28.5N   80.2W              77 78  120/ 12/ 14 1017.1R
28.9N   78.5W              77 77  100/ 10/ 12 1017.4R
TRIDENT PIER               76 80  120/  6/  9 1016.6R
28.4N   80.5W                 78                N/A     2/ 4
27.5N   80.2W                 78                N/A     2/11

$$
FLZ050-056-061-142-242-148-248-149-249-151-251-155-255-
160-260-010400-
WEST CENTRAL FLORIDA

CITY           SKY/WX    TMP DP  RH WIND       PRES   REMARKS
CRYSTAL RIVER  FAIR     N/A N/A N/A CALM      30.01S
INVERNESS      FAIR      77  68  73 SE5       30.01S
BROOKSVILLE    CLOUDY    77  65  66 E8        30.00R
ZEPHYRHILLS    FAIR      74  62  65 E5        30.02R
CLEARWATER AIR FAIR      75  70  83 CALM      30.00R
ST PETE CLEARW CLOUDY    78  66  66 SE5       29.99R
TAMPA INTL     MOCLDY    80  64  58 E7        30.00R
TAMPA EXEC     PTCLDY    79  64  61 CALM      30.01R
PLANT CITY     CLOUDY    77  66  69 E3        30.03R
MACDILL AFB    PTCLDY    78  67  68 SE9       29.99R
PETER O KNIGHT MOCLDY    81  68  65 E8        30.00R
ST PETERSBURG  MOCLDY    80  65  59 S13       29.97R
SARASOTA       PTCLDY    76  63  64 SE10      29.97R
VENICE         NOT AVBL

STATION/POSITION SKY/WX   TEMP    WIND        PRES    WAVE   SWELL
                          AIR SEA DIR/SP/G            HT/PER HT/PER
                          (F)     (DEG/KT/KT) (MB)    (FT/S) (FT/S)
27.3N   84.2W                 80                N/A     3/ 6
CLEARWATER BEACH           79 80  210/  3/  3 1015.2R
MIDDLE TAMPA BAY NOT AVBL
VENICE                     77 81  100/  5/  7 1015.0R

$$
FLZ066-069-070-075>078-162-262-165-265-010400-
SOUTHWEST FLORIDA AND KEYS

CITY           SKY/WX    TMP DP  RH WIND       PRES   REMARKS
PUNTA GORDA    PTCLDY    72  64  76 E7        30.01R
FT MYERS       CLEAR     75  62  64 E9        29.98R
SOUTHWEST INTL CLEAR     73  62  68 E8        29.99R
NAPLES         PTCLDY    76  64  66 E9        29.98R
MARCO ISLAND   PTCLDY    73  63  68 E5        29.98R
MARATHON       PTCLDY    79  70  74 E8        29.95F
KEY WEST NAS   PTCLDY    78  67  68 E18       29.95R
KEY WEST INTL  PTCLDY    78  69  73 E21G26    29.96R

STATION/POSITION SKY/WX   TEMP    WIND        PRES    WAVE   SWELL
                          AIR SEA DIR/SP/G            HT/PER HT/PER
                          (F)     (DEG/KT/KT) (MB)    (FT/S) (FT/S)
NAPLES                        82              1014.7R
26.0N   85.6W              79 80  110/ 16/ 19 1013.7R   5/ 7
DRY TORTUGAS               78     110/ 18/ 20 1014.0R
SAND KEY                   79     120/ 23/ 26 1014.3R
LONG KEY                   79 81  100/ 18/ 21 1014.8F
MOLASSES REEF              79 81   90/ 16/ 18 1015.0

$$
FLZ067-068-071>074-168-172>174-010400-
SOUTHEAST FLORIDA

CITY           SKY/WX    TMP DP  RH WIND       PRES   REMARKS
W PALM BEACH   MOCLDY    78  66  66 E13       30.01R
BOCA RATON     PTCLDY    77  68  73 SE9       30.00R
FT LAUDER-EXEC CLOUDY    77  68  73 E10       29.99R
FT LAUDERDALE  CLOUDY    78  68  71 E14       29.99R
POMPANO BEACH  CLOUDY    74  69  85 E9        30.00R
PEMBROKE PINES MOCLDY    77  68  73 E8        30.00R
OPA LOCKA      PTCLDY    77  68  73 E10       29.99R
MIAMI          MOCLDY    78  68  71 E14       29.99R
WEST KENDALL   MOCLDY    76  69  79 E13       29.99R
HOMESTEAD      MOCLDY    78  69  75 E10       29.98R

STATION/POSITION SKY/WX   TEMP    WIND        PRES    WAVE   SWELL
                          AIR SEA DIR/SP/G            HT/PER HT/PER
                          (F)     (DEG/KT/KT) (MB)    (FT/S) (FT/S)
PORT EVERGLADES            78      90/ 10/ 14 1015.2F
VIRGINIA KEY               78 81   90/ 14/ 17 1015.2F
LAKE WORTH                 78 80   90/ 12/ 14 1015.5F
SETTLEMENT POINT           77     100/ 14/ 15 1017.2R

$$





USA.gov is the U.S. government's official web portal to all federal, state and local government web resources and services.